FW3216 Weather Reports


time (UTC)temp
C
wind
direction
speed
KPH
gust
KPH
rain 1hr
cm
rain 24hr
cm
rain mn
cm
humidity
%
barometer
mb
20260502233517 17 180 9.7 17.7 0.00 0.00 0.00 37 1010.1
20260502232537 18 203 8.0 16.1 0.00 0.00 0.00 37 1010.3
20260502231517 17 225 9.7 22.5 0.00 0.00 0.00 37 1010.3
20260502230517 17 225 6.4 17.7 0.00 0.00 0.00 39 1010.5
20260502225517 17 203 9.7 12.9 0.00 0.00 0.00 37 1010.6
20260502224518 17 225 6.4 11.3 0.00 0.00 0.00 38 1010.8
20260502223517 17 248 4.8 11.3 0.00 0.00 0.00 37 1010.8
20260502222517 18 225 6.4 19.3 0.00 0.00 0.00 35 1010.9
20260502221517 18 248 6.4 16.1 0.00 0.00 0.00 35 1010.9
20260502220517 18 225 6.4 16.1 0.00 0.00 0.00 36 1011.1
20260502215517 18 248 9.7 24.1 0.00 0.00 0.00 35 1011.2
20260502214517 18 248 6.4 16.1 0.00 0.00 0.00 37 1011.4
20260502213538 18 225 16.1 27.4 0.00 0.00 0.00 37 1011.6
20260502212517 18 225 11.3 27.4 0.00 0.00 0.00 36 1011.6
20260502211517 18 248 9.7 25.7 0.00 0.00 0.00 35 1011.8
20260502210557 17 270 8.0 17.7 0.00 0.00 0.00 37 1012.0
20260502205516 18 270 11.3 20.9 0.00 0.00 0.00 34 1012.2
20260502204537 18 225 9.7 19.3 0.00 0.00 0.00 39 1012.5
20260502203517 18 225 9.7 27.4 0.00 0.00 0.00 35 1012.8
20260502202516 18 225 12.9 24.1 0.00 0.00 0.00 38 1013.0
20260502201517 17 225 14.5 24.1 0.00 0.00 0.00 37 1013.3
20260502200517 17 248 8.0 20.9 0.00 0.00 0.00 35 1013.5
20260502195517 17 225 12.9 22.5 0.00 0.00 0.00 37 1013.7
20260502194517 17 225 14.5 33.8 0.00 0.00 0.00 38 1013.8
20260502193537 16 225 11.3 20.9 0.00 0.00 0.00 36 1014.0
20260502192516 17 225 12.9 19.3 0.00 0.00 0.00 37 1014.1
20260502191516 17 225 17.7 25.7 0.00 0.00 0.00 36 1014.3
20260502190516 16 225 11.3 19.3 0.00 0.00 0.00 39 1014.5
20260502185516 16 203 11.3 20.9 0.00 0.00 0.00 39 1014.8
20260502184516 16 225 11.3 22.5 0.00 0.00 0.00 39 1015.1
20260502183537 16 225 16.1 32.2 0.00 0.00 0.00 39 1015.1
20260502182516 15 225 14.5 30.6 0.00 0.00 0.00 39 1015.3
20260502181517 16 225 9.7 22.5 0.00 0.00 0.00 39 1015.4
20260502180517 15 225 8.0 22.5 0.00 0.00 0.00 38 1015.5
20260502170517 14 225 12.9 22.5 0.00 0.00 0.00 39 1016.3
20260502163516 13 225 6.4 16.1 0.00 0.00 0.00 40 1016.9
20260502162537 13 270 8.0 20.9 0.00 0.00 0.00 40 1016.9
20260502161536 13 248 9.7 22.5 0.00 0.00 0.00 39 1017.1
20260502160516 13 225 6.4 19.3 0.00 0.00 0.00 42 1017.3
20260502151516 12 248 6.4 16.1 0.00 0.00 0.00 42 1017.7
20260502150517 12 248 3.2 8.0 0.00 0.00 0.00 46 1017.8
20260502130516 7 225 3.2 4.8 0.00 0.00 0.00 66 1018.2
20260502123516 4 90 1.6 4.8 0.00 0.00 0.00 74 1018.2
20260502122516 3 68 1.6 3.2 0.00 0.00 0.00 76 1018.1
20260502121536 2 68 3.2 6.4 0.00 0.00 0.00 78 1018.0
20260502120516 2 68 1.6 3.2 0.00 0.00 0.00 79 1018.0
20260502115516 1 225 1.6 6.4 0.00 0.00 0.00 80 1017.9
20260502113516 1 270 1.6 3.2 0.00 0.00 0.00 80 1017.8
20260502112516 1 270 1.6 3.2 0.00 0.00 0.00 80 1017.8
20260502111516 1 270 1.6 3.2 0.00 0.00 0.00 80 1017.7
20260502110516 1 0.0 0.0 0.00 0.00 0.00 79 1017.7
20260502105515 1 0.0 0.0 0.00 0.00 0.00 79 1017.7
20260502104516 1 0.0 0.0 0.00 0.00 0.00 79 1017.8
20260502103515 1 0.0 1.6 0.00 0.00 0.00 79 1017.8
20260502102516 1 0.0 1.6 0.00 0.00 0.00 78 1017.9
20260502101516 1 0.0 1.6 0.00 0.00 0.00 78 1017.8
20260502100516 1 0.0 0.0 0.00 0.00 0.00 77 1017.8
20260502091516 2 0.0 0.0 0.00 0.00 0.00 74 1017.7
20260502090516 2 0.0 0.0 0.00 0.00 0.00 72 1017.7
20260502071515 3 0.0 0.0 0.00 0.00 0.00 65 1018.0
20260502070517 3 0.0 0.0 0.00 0.00 0.00 66 1018.0
20260502065517 3 0.0 0.0 0.00 0.00 0.00 67 1018.0
20260502064518 3 0.0 1.6 0.00 0.00 0.00 66 1018.1
20260502063537 3 270 1.6 4.8 0.00 0.00 0.00 67 1018.2
20260502062517 3 0.0 3.2 0.00 0.00 0.00 66 1018.2
20260502061538 3 270 1.6 3.2 0.00 0.00 0.00 66 1018.2
20260502060557 3 270 1.6 4.8 0.00 0.00 0.00 67 1018.2
20260502055517 3 0.0 3.2 0.00 0.00 0.00 66 1018.2
20260502054537 3 0.0 4.8 0.00 0.00 0.00 66 1018.2
20260502053517 3 270 1.6 4.8 0.00 0.00 0.00 65 1018.2
20260502052517 3 0.0 0.0 0.00 0.00 0.00 65 1018.2
20260502051517 3 0.0 1.6 0.00 0.00 0.00 65 1018.1
20260502050517 4 0.0 0.0 0.00 0.00 0.00 65 1018.2
20260502045515 4 0.0 0.0 0.00 0.00 0.00 64 1018.2
20260502044517 4 0.0 0.0 0.00 0.00 0.00 63 1018.0
20260502043517 5 0.0 0.0 0.00 0.00 0.00 63 1018.1
20260502042517 5 0.0 0.0 0.00 0.00 0.00 61 1018.0
20260502041518 5 0.0 0.0 0.00 0.00 0.00 60 1018.0
20260502040517 5 0.0 0.0 0.00 0.00 0.00 60 1018.1
20260502035557 6 0.0 0.0 0.00 0.00 0.00 58 1018.1
20260502034518 6 0.0 1.6 0.00 0.00 0.00 57 1018.1
20260502033517 6 0.0 1.6 0.00 0.00 0.00 57 1018.2
20260502032517 6 270 1.6 3.2 0.00 0.00 0.00 57 1018.2
20260502031517 7 0.0 1.6 0.00 0.00 0.00 56 1018.1
20260502030517 7 0.0 0.0 0.00 0.00 0.00 58 1018.1
20260502025517 7 270 1.6 3.2 0.00 0.00 0.00 52 1018.1
20260502024517 7 0.0 1.6 0.00 0.00 0.00 49 1018.1
20260502023517 8 0.0 1.6 0.00 0.00 0.00 45 1018.2
20260502022517 8 0.0 1.6 0.00 0.00 0.00 46 1018.0
20260502021658 8 0.0 1.6 0.00 0.00 0.00 42 1018.0
20260502020537 8 0.0 1.6 0.00 0.00 0.00 42 1017.9
20260502015517 8 0.0 3.2 0.00 0.00 0.00 40 1017.7
20260502014517 9 0.0 3.2 0.00 0.00 0.00 38 1017.6
20260502013517 10 0.0 1.6 0.00 0.00 0.00 37 1017.5
20260502012517 10 0.0 3.2 0.00 0.00 0.00 35 1017.4
20260502011517 10 270 1.6 6.4 0.00 0.00 0.00 34 1017.5
20260502010517 10 270 1.6 6.4 0.00 0.00 0.00 35 1017.5
20260502005537 10 270 3.2 9.7 0.00 0.00 0.00 35 1017.4
20260502004517 11 248 1.6 4.8 0.00 0.00 0.00 35 1017.4
20260502003517 11 248 1.6 9.7 0.00 0.00 0.00 34 1017.5
20260502002517 11 23 1.6 3.2 0.00 0.00 0.00 33 1017.4
20260502001517 11 23 3.2 4.8 0.00 0.00 0.00 34 1017.4
20260502000517 11 338 1.6 8.0 0.00 0.00 0.00 34 1017.5
20260501235517 11 293 3.2 8.0 0.00 0.00 0.00 34 1017.3
20260501234517 11 248 1.6 6.4 0.00 0.00 0.00 35 1017.5